Location: Unspecified
(33.6682°S, 0.0000°E)
Time: 04:33:38
(UTC+00:00)

Vanguard 2 Rocket - Pass Details

Date: 23 June 2019
Orbit: 553 x 3327 km, 32.9° (Epoch: 16 August)

Event Time Altitude Azimuth Distance (km) Brightness Sun altitude
Rises 14:52:24 0° 263° (W) 3,876 10.6 20.0°
Reaches altitude 10° 14:56:17 10° 279° (W) 2,501 10.1 19.5°
Maximum altitude 15:00:08 19° 323° (NW) 1,624 11.3 18.9°
Drops below altitude 10° 15:03:14 10° 10° (N) 1,942 9.2 18.5°
Sets 15:05:47 0° 29° (NNE) 2,737 9.6 18.1°
